User: anonymous   Login
Location: El Para�so
(10.4896°N, 66.9245°W)
Time: 12:04:03
(UTC+00:00)
Language:

Cosmos 1933 - Orbit

View from above orbital plane
View from above orbital plane
View from above satellite
View from above satellite

Ground track
Ground track

The orbit data is extracted from the following two-line orbital elements,

1 18958U 88020A   20293.89497012 +.00000447 +00000-0 +30384-4 0  9992
2 18958 082.5325 005.4246 0013021 089.2845 270.9873 15.03778561774953
Epoch (UTC): 19 October 2020 21:28:45
Eccentricity: 0.0013021
inclination: 82.5325°
perigee height: 546 km
apogee height: 564 km
right ascension of ascending node: 5.4246°
argument of perigee: 89.2845°
revolutions per day: 15.03778561
mean anomaly at epoch: 270.9873°
orbit number at epoch: 77495

The dashed part of the orbit path shows where the satellite is in the earth's shadow,  

DLR